| time (UTC) | temp F | wind direction | speed MPH | gust MPH | rain 1hr in | rain 24hr in | rain mn in | humidity % | barometer mb |
| 20260504020308 | 62 | 282 | 6.0 | 14.0 | 0.00 | 0.00 | 0.00 | 41 | 994.0 |
| 20260504015803 | 63 | 301 | 8.0 | 13.0 | 0.00 | 0.00 | 0.00 | 38 | 993.6 |
| 20260504015300 | 63 | 301 | 3.0 | 8.0 | 0.00 | 0.00 | 0.00 | 36 | 993.4 |
| 20260504014755 | 64 | 298 | 4.0 | 9.0 | 0.00 | 0.00 | 0.00 | 36 | 993.4 |
| 20260504014252 | 64 | 305 | 2.0 | 7.0 | 0.00 | 0.00 | 0.00 | 36 | 993.5 |
| 20260504013750 | 64 | 296 | 5.0 | 9.0 | 0.00 | 0.00 | 0.00 | 35 | 993.5 |
| 20260504013248 | 64 | 313 | 6.0 | 10.0 | 0.00 | 0.00 | 0.00 | 36 | 993.4 |
| 20260504012743 | 64 | 242 | 6.0 | 8.0 | 0.00 | 0.00 | 0.00 | 35 | 993.4 |
| 20260504012242 | 65 | 297 | 3.0 | 6.0 | 0.00 | 0.00 | 0.00 | 35 | 993.5 |
| 20260504011738 | 65 | 17 | 3.0 | 8.0 | 0.00 | 0.00 | 0.00 | 35 | 993.5 |
| 20260504011235 | 66 | 330 | 4.0 | 10.0 | 0.00 | 0.00 | 0.00 | 35 | 993.6 |
| 20260504010731 | 66 | 237 | 5.0 | 7.0 | 0.00 | 0.00 | 0.00 | 35 | 993.6 |
| 20260504010227 | 66 | 282 | 5.0 | 8.0 | 0.00 | 0.00 | 0.00 | 36 | 993.6 |
| 20260504005724 | 66 | 216 | 5.0 | 11.0 | 0.00 | 0.00 | 0.00 | 36 | 994.4 |
| 20260504005221 | 66 | 315 | 5.0 | 7.0 | 0.00 | 0.00 | 0.00 | 35 | 994.1 |
| 20260504004719 | 67 | 203 | 4.0 | 7.0 | 0.00 | 0.00 | 0.00 | 37 | 994.3 |
| 20260504004215 | 67 | 238 | 3.0 | 9.0 | 0.00 | 0.00 | 0.00 | 36 | 994.2 |
| 20260504003712 | 67 | 4 | 5.0 | 11.0 | 0.00 | 0.00 | 0.00 | 37 | 994.0 |
| 20260504003209 | 68 | 331 | 5.0 | 8.0 | 0.00 | 0.00 | 0.00 | 40 | 994.3 |
| 20260504002706 | 68 | 251 | 2.0 | 7.0 | 0.00 | 0.00 | 0.00 | 43 | 994.0 |
| 20260504002203 | 68 | 342 | 2.0 | 7.0 | 0.00 | 0.00 | 0.00 | 43 | 994.1 |
| 20260504001701 | 68 | 199 | 4.0 | 6.0 | 0.00 | 0.00 | 0.00 | 43 | 994.0 |
| 20260504001157 | 68 | 308 | 2.0 | 8.0 | 0.00 | 0.00 | 0.00 | 42 | 994.2 |
| 20260504000654 | 68 | 280 | 3.0 | 6.0 | 0.00 | 0.00 | 0.00 | 43 | 994.3 |
| 20260504000151 | 68 | 308 | 2.0 | 7.0 | 0.00 | 0.00 | 0.00 | 43 | 994.3 |
| 20260503235649 | 68 | 266 | 2.0 | 10.0 | 0.00 | 0.00 | 0.00 | 43 | 994.4 |
| 20260503235145 | 68 | 347 | 5.0 | 13.0 | 0.00 | 0.00 | 0.00 | 42 | 994.5 |
| 20260503234644 | 69 | 301 | 5.0 | 10.0 | 0.00 | 0.00 | 0.00 | 42 | 994.6 |
| 20260503234142 | 69 | 267 | 9.0 | 15.0 | 0.00 | 0.00 | 0.00 | 41 | 994.7 |
| 20260503233638 | 69 | 218 | 5.0 | 13.0 | 0.00 | 0.00 | 0.00 | 42 | 994.6 |
| 20260503233134 | 69 | 356 | 2.0 | 14.0 | 0.00 | 0.00 | 0.00 | 42 | 994.8 |
| 20260503232631 | 69 | 252 | 6.0 | 11.0 | 0.00 | 0.00 | 0.00 | 42 | 994.8 |
| 20260503232128 | 68 | 293 | 9.0 | 15.0 | 0.00 | 0.00 | 0.00 | 42 | 995.1 |
| 20260503231626 | 69 | 283 | 8.0 | 11.0 | 0.00 | 0.00 | 0.00 | 41 | 995.1 |
| 20260503231122 | 69 | 298 | 11.0 | 16.0 | 0.00 | 0.00 | 0.00 | 40 | 995.1 |
| 20260503230619 | 69 | 301 | 8.0 | 14.0 | 0.00 | 0.00 | 0.00 | 39 | 994.9 |
| 20260503230117 | 69 | 216 | 4.0 | 11.0 | 0.00 | 0.00 | 0.00 | 39 | 995.0 |
| 20260503225614 | 69 | 212 | 6.0 | 16.0 | 0.00 | 0.00 | 0.00 | 38 | 995.1 |
| 20260503225113 | 70 | 241 | 7.0 | 13.0 | 0.00 | 0.00 | 0.00 | 38 | 995.1 |
| 20260503224611 | 70 | 255 | 6.0 | 15.0 | 0.00 | 0.00 | 0.00 | 37 | 994.8 |
| 20260503224109 | 70 | 313 | 7.0 | 21.0 | 0.00 | 0.00 | 0.00 | 37 | 994.9 |
| 20260503223607 | 70 | 311 | 9.0 | 16.0 | 0.00 | 0.00 | 0.00 | 36 | 995.0 |
| 20260503223102 | 70 | 270 | 5.0 | 13.0 | 0.00 | 0.00 | 0.00 | 35 | 995.0 |
| 20260503222600 | 70 | 254 | 3.0 | 9.0 | 0.00 | 0.00 | 0.00 | 34 | 995.0 |
| 20260503222058 | 70 | 247 | 3.0 | 17.0 | 0.00 | 0.00 | 0.00 | 34 | 995.3 |
| 20260503221555 | 70 | 233 | 4.0 | 14.0 | 0.00 | 0.00 | 0.00 | 35 | 995.1 |
| 20260503221053 | 69 | 329 | 3.0 | 14.0 | 0.00 | 0.00 | 0.00 | 35 | 995.5 |
| 20260503220549 | 70 | 208 | 7.0 | 15.0 | 0.00 | 0.00 | 0.00 | 34 | 995.5 |
| 20260503220046 | 71 | 279 | 11.0 | 18.0 | 0.00 | 0.00 | 0.00 | 33 | 995.6 |
| 20260503215543 | 71 | 315 | 3.0 | 10.0 | 0.00 | 0.00 | 0.00 | 28 | 995.7 |
| 20260503215040 | 72 | 228 | 1.0 | 3.0 | 0.00 | 0.00 | 0.00 | 28 | 995.9 |
| 20260503214538 | 72 | 309 | 8.0 | 16.0 | 0.00 | 0.00 | 0.00 | 27 | 995.8 |
| 20260503214035 | 72 | 256 | 5.0 | 10.0 | 0.00 | 0.00 | 0.00 | 28 | 995.7 |
| 20260503213533 | 72 | 210 | 1.0 | 5.0 | 0.00 | 0.00 | 0.00 | 28 | 995.8 |
| 20260503213030 | 72 | 182 | 2.0 | 7.0 | 0.00 | 0.00 | 0.00 | 29 | 995.8 |
| 20260503212527 | 71 | 215 | 1.0 | 3.0 | 0.00 | 0.00 | 0.00 | 29 | 995.9 |
| 20260503212024 | 70 | 260 | 4.0 | 8.0 | 0.00 | 0.00 | 0.00 | 29 | 996.3 |
| 20260503211521 | 69 | 262 | 7.0 | 15.0 | 0.00 | 0.00 | 0.00 | 30 | 996.3 |
| 20260503211017 | 69 | 354 | 3.0 | 7.0 | 0.00 | 0.00 | 0.00 | 32 | 996.7 |
| 20260503210514 | 69 | 140 | 1.0 | 2.0 | 0.00 | 0.00 | 0.00 | 33 | 997.0 |
| 20260503210009 | 69 | 201 | 1.0 | 6.0 | 0.00 | 0.00 | 0.00 | 32 | 997.1 |
| 20260503205506 | 69 | 239 | 3.0 | 10.0 | 0.00 | 0.00 | 0.00 | 32 | 997.5 |
| 20260503205002 | 69 | 253 | 4.0 | 9.0 | 0.00 | 0.00 | 0.00 | 32 | 997.2 |
| 20260503204500 | 69 | 329 | 6.0 | 10.0 | 0.00 | 0.00 | 0.00 | 32 | 997.3 |
| 20260503203956 | 70 | 208 | 2.0 | 6.0 | 0.00 | 0.00 | 0.00 | 29 | 997.2 |
| 20260503203454 | 70 | 284 | 5.0 | 14.0 | 0.00 | 0.00 | 0.00 | 29 | 997.5 |
| 20260503202950 | 71 | 327 | 3.0 | 7.0 | 0.00 | 0.00 | 0.00 | 29 | 997.4 |
| 20260503202449 | 71 | 237 | 1.0 | 6.0 | 0.00 | 0.00 | 0.00 | 29 | 997.6 |
| 20260503201947 | 71 | 292 | 5.0 | 9.0 | 0.00 | 0.00 | 0.00 | 29 | 998.0 |
| 20260503201444 | 71 | 220 | 4.0 | 9.0 | 0.00 | 0.00 | 0.00 | 29 | 998.4 |
| 20260503200941 | 71 | 320 | 7.0 | 10.0 | 0.00 | 0.00 | 0.00 | 30 | 998.5 |
| 20260503200438 | 71 | 324 | 9.0 | 17.0 | 0.00 | 0.00 | 0.00 | 29 | 998.6 |
| 20260503195934 | 71 | 266 | 5.0 | 10.0 | 0.00 | 0.00 | 0.00 | 29 | 998.8 |
| 20260503195432 | 71 | 308 | 4.0 | 10.0 | 0.00 | 0.00 | 0.00 | 28 | 999.2 |
| 20260503194928 | 72 | 256 | 7.0 | 11.0 | 0.00 | 0.00 | 0.00 | 29 | 999.2 |
| 20260503194425 | 72 | 299 | 1.0 | 11.0 | 0.00 | 0.00 | 0.00 | 29 | 999.4 |
| 20260503193920 | 72 | 256 | 5.0 | 10.0 | 0.00 | 0.00 | 0.00 | 30 | 999.5 |
| 20260503193416 | 71 | 273 | 2.0 | 17.0 | 0.00 | 0.00 | 0.00 | 30 | 999.7 |
| 20260503192912 | 71 | 250 | 6.0 | 13.0 | 0.00 | 0.00 | 0.00 | 30 | 999.8 |
| 20260503192408 | 71 | 150 | 3.0 | 10.0 | 0.00 | 0.00 | 0.00 | 31 | 1000.0 |
| 20260503191904 | 71 | 228 | 2.0 | 10.0 | 0.00 | 0.00 | 0.00 | 31 | 1000.1 |
| 20260503191402 | 71 | 243 | 3.0 | 11.0 | 0.00 | 0.00 | 0.00 | 32 | 1000.3 |
| 20260503190858 | 70 | 237 | 2.0 | 11.0 | 0.00 | 0.00 | 0.00 | 31 | 1000.4 |
| 20260503190355 | 71 | 223 | 7.0 | 11.0 | 0.00 | 0.00 | 0.00 | 31 | 1000.8 |
| 20260503185852 | 71 | 262 | 0.0 | 6.0 | 0.00 | 0.00 | 0.00 | 32 | 1000.7 |
| 20260503185348 | 70 | 198 | 1.0 | 3.0 | 0.00 | 0.00 | 0.00 | 33 | 1000.7 |
| 20260503184848 | 70 | 193 | 1.0 | 6.0 | 0.00 | 0.00 | 0.00 | 32 | 1001.1 |
| 20260503184344 | 69 | 80 | 2.0 | 8.0 | 0.00 | 0.00 | 0.00 | 33 | 1001.2 |
| 20260503183840 | 69 | 187 | 2.0 | 8.0 | 0.00 | 0.00 | 0.00 | 33 | 1001.4 |
| 20260503183338 | 69 | 207 | 3.0 | 6.0 | 0.00 | 0.00 | 0.00 | 33 | 1001.8 |
| 20260503182835 | 69 | 254 | 5.0 | 9.0 | 0.00 | 0.00 | 0.00 | 33 | 1001.7 |
| 20260503182334 | 70 | 185 | 2.0 | 8.0 | 0.00 | 0.00 | 0.00 | 33 | 1001.9 |
| 20260503181831 | 70 | 308 | 2.0 | 3.0 | 0.00 | 0.00 | 0.00 | 33 | 1002.1 |
| 20260503181328 | 70 | 202 | 2.0 | 5.0 | 0.00 | 0.00 | 0.00 | 33 | 1002.3 |
| 20260503180824 | 70 | 227 | 2.0 | 10.0 | 0.00 | 0.00 | 0.00 | 33 | 1002.3 |
| 20260503180322 | 70 | 208 | 2.0 | 7.0 | 0.00 | 0.00 | 0.00 | 32 | 1002.5 |
| 20260503175818 | 69 | 232 | 1.0 | 3.0 | 0.00 | 0.00 | 0.00 | 31 | 1002.9 |
| 20260503175317 | 69 | 273 | 2.0 | 3.0 | 0.00 | 0.00 | 0.00 | 31 | 1003.3 |
| 20260503174812 | 69 | 314 | 3.0 | 6.0 | 0.00 | 0.00 | 0.00 | 31 | 1003.1 |
| 20260503174310 | 69 | 240 | 3.0 | 9.0 | 0.00 | 0.00 | 0.00 | 31 | 1003.5 |
| 20260503173806 | 69 | 201 | 3.0 | 5.0 | 0.00 | 0.00 | 0.00 | 30 | 1003.3 |
| 20260503173302 | 68 | 326 | 2.0 | 6.0 | 0.00 | 0.00 | 0.00 | 31 | 1003.7 |
| 20260503172759 | 68 | 275 | 4.0 | 7.0 | 0.00 | 0.00 | 0.00 | 31 | 1003.7 |
| 20260503172256 | 68 | 297 | 1.0 | 2.0 | 0.00 | 0.00 | 0.00 | 32 | 1003.8 |
| 20260503171752 | 67 | 328 | 2.0 | 7.0 | 0.00 | 0.00 | 0.00 | 33 | 1004.4 |
| 20260503171249 | 68 | 214 | 1.0 | 3.0 | 0.00 | 0.00 | 0.00 | 32 | 1004.6 |
| 20260503170746 | 67 | 107 | 3.0 | 5.0 | 0.00 | 0.00 | 0.00 | 33 | 1004.7 |
| 20260503170243 | 66 | 359 | 3.0 | 8.0 | 0.00 | 0.00 | 0.00 | 34 | 1004.7 |
| 20260503160205 | 62 | 287 | 4.0 | 5.0 | 0.00 | 0.00 | 0.00 | 40 | 1006.3 |
| 20260503150635 | 57 | 210 | 2.0 | 5.0 | 0.00 | 0.00 | 0.00 | 47 | 1007.4 |
| 20260503150131 | 57 | 314 | 1.0 | 5.0 | 0.00 | 0.00 | 0.00 | 48 | 1007.5 |
| 20260503131025 | 43 | 275 | 2.0 | 3.0 | 0.00 | 0.00 | 0.00 | 61 | 1009.3 |
| 20260503130522 | 43 | 290 | 1.0 | 5.0 | 0.00 | 0.00 | 0.00 | 61 | 1009.3 |
| 20260503110413 | 31 | 218 | 0.0 | 0.0 | 0.00 | 0.00 | 0.00 | 82 | 1010.0 |
| 20260503090304 | 36 | 229 | 0.0 | 1.0 | 0.00 | 0.00 | 0.00 | 73 | 1010.5 |
| 20260503081231 | 37 | 223 | 0.0 | 0.0 | 0.00 | 0.00 | 0.00 | 76 | 1010.5 |
| 20260503080726 | 38 | 223 | 0.0 | 1.0 | 0.00 | 0.00 | 0.00 | 76 | 1010.5 |
| 20260503080224 | 38 | 223 | 0.0 | 0.0 | 0.00 | 0.00 | 0.00 | 76 | 1010.3 |
| 20260503072701 | 37 | 215 | 0.0 | 0.0 | 0.00 | 0.00 | 0.00 | 74 | 1010.5 |
| 20260503072157 | 38 | 215 | 0.0 | 0.0 | 0.00 | 0.00 | 0.00 | 74 | 1010.4 |
| 20260503071654 | 38 | 215 | 0.0 | 0.0 | 0.00 | 0.00 | 0.00 | 74 | 1010.8 |
| 20260503071151 | 38 | 215 | 0.0 | 0.0 | 0.00 | 0.00 | 0.00 | 73 | 1010.6 |
| 20260503070648 | 39 | 215 | 0.0 | 0.0 | 0.00 | 0.00 | 0.00 | 73 | 1010.7 |
| 20260503070146 | 39 | 215 | 0.0 | 0.0 | 0.00 | 0.00 | 0.00 | 72 | 1010.6 |
| 20260503060110 | 45 | 196 | 0.0 | 0.0 | 0.00 | 0.00 | 0.00 | 61 | 1010.5 |
| 20260503055102 | 44 | 160 | 1.0 | 2.0 | 0.00 | 0.00 | 0.00 | 61 | 1010.8 |
| 20260503054557 | 44 | 192 | 0.0 | 1.0 | 0.00 | 0.00 | 0.00 | 62 | 1010.6 |
| 20260503054054 | 45 | 212 | 0.0 | 0.0 | 0.00 | 0.00 | 0.00 | 62 | 1010.8 |
| 20260503053553 | 45 | 209 | 0.0 | 0.0 | 0.00 | 0.00 | 0.00 | 61 | 1011.0 |
| 20260503053050 | 46 | 204 | 0.0 | 1.0 | 0.00 | 0.00 | 0.00 | 60 | 1011.2 |
| 20260503052547 | 46 | 194 | 0.0 | 2.0 | 0.00 | 0.00 | 0.00 | 60 | 1010.9 |
| 20260503052043 | 47 | 211 | 0.0 | 2.0 | 0.00 | 0.00 | 0.00 | 59 | 1011.2 |
| 20260503051538 | 47 | 215 | 0.0 | 1.0 | 0.00 | 0.00 | 0.00 | 58 | 1011.3 |
| 20260503051037 | 47 | 196 | 0.0 | 3.0 | 0.00 | 0.00 | 0.00 | 58 | 1011.2 |
| 20260503050532 | 48 | 217 | 1.0 | 2.0 | 0.00 | 0.00 | 0.00 | 57 | 1010.9 |
| 20260503050030 | 48 | 197 | 1.0 | 2.0 | 0.00 | 0.00 | 0.00 | 56 | 1011.0 |
| 20260503045527 | 48 | 24 | 3.0 | 7.0 | 0.00 | 0.00 | 0.00 | 56 | 1010.9 |
| 20260503045024 | 48 | 55 | 2.0 | 2.0 | 0.00 | 0.00 | 0.00 | 56 | 1010.8 |
| 20260503044520 | 48 | 180 | 0.0 | 2.0 | 0.00 | 0.00 | 0.00 | 57 | 1010.8 |
| 20260503044018 | 49 | 26 | 2.0 | 3.0 | 0.00 | 0.00 | 0.00 | 55 | 1010.6 |
| 20260503043514 | 49 | 78 | 4.0 | 7.0 | 0.00 | 0.00 | 0.00 | 55 | 1010.6 |
| 20260503043011 | 50 | 40 | 2.0 | 2.0 | 0.00 | 0.00 | 0.00 | 55 | 1010.8 |
| 20260503042508 | 50 | 30 | 4.0 | 6.0 | 0.00 | 0.00 | 0.00 | 54 | 1010.6 |
| 20260503042004 | 50 | 20 | 1.0 | 7.0 | 0.00 | 0.00 | 0.00 | 54 | 1010.7 |
| 20260503041501 | 51 | 139 | 1.0 | 5.0 | 0.00 | 0.00 | 0.00 | 54 | 1010.7 |
| 20260503040959 | 51 | 34 | 3.0 | 5.0 | 0.00 | 0.00 | 0.00 | 54 | 1010.7 |
| 20260503040456 | 51 | 326 | 3.0 | 6.0 | 0.00 | 0.00 | 0.00 | 53 | 1010.6 |
| 20260503035953 | 52 | 16 | 3.0 | 3.0 | 0.00 | 0.00 | 0.00 | 54 | 1010.5 |
| 20260503035450 | 52 | 275 | 1.0 | 8.0 | 0.00 | 0.00 | 0.00 | 53 | 1010.7 |
| 20260503034948 | 52 | 10 | 2.0 | 5.0 | 0.00 | 0.00 | 0.00 | 53 | 1010.5 |
| 20260503034444 | 53 | 175 | 2.0 | 6.0 | 0.00 | 0.00 | 0.00 | 51 | 1010.3 |
| 20260503033941 | 53 | 335 | 1.0 | 5.0 | 0.00 | 0.00 | 0.00 | 50 | 1010.1 |
| 20260503033439 | 53 | 1 | 3.0 | 8.0 | 0.00 | 0.00 | 0.00 | 49 | 1010.1 |
| 20260503032937 | 53 | 241 | 6.0 | 9.0 | 0.00 | 0.00 | 0.00 | 49 | 1010.4 |
| 20260503032435 | 53 | 229 | 2.0 | 3.0 | 0.00 | 0.00 | 0.00 | 48 | 1010.4 |
| 20260503031932 | 54 | 227 | 2.0 | 6.0 | 0.00 | 0.00 | 0.00 | 49 | 1010.2 |
| 20260503031430 | 54 | 35 | 4.0 | 6.0 | 0.00 | 0.00 | 0.00 | 49 | 1010.3 |
| 20260503030926 | 54 | 206 | 2.0 | 3.0 | 0.00 | 0.00 | 0.00 | 50 | 1010.2 |
| 20260503030423 | 54 | 319 | 2.0 | 3.0 | 0.00 | 0.00 | 0.00 | 51 | 1010.3 |
| 20260503025920 | 54 | 251 | 2.0 | 3.0 | 0.00 | 0.00 | 0.00 | 51 | 1010.3 |
| 20260503025417 | 55 | 206 | 1.0 | 5.0 | 0.00 | 0.00 | 0.00 | 50 | 1010.2 |
| 20260503024914 | 55 | 247 | 1.0 | 2.0 | 0.00 | 0.00 | 0.00 | 53 | 1010.2 |
| 20260503024411 | 56 | 318 | 3.0 | 6.0 | 0.00 | 0.00 | 0.00 | 50 | 1010.1 |
| 20260503023908 | 56 | 222 | 2.0 | 3.0 | 0.00 | 0.00 | 0.00 | 50 | 1009.9 |
| 20260503023405 | 56 | 286 | 2.0 | 5.0 | 0.00 | 0.00 | 0.00 | 52 | 1010.1 |
| 20260503022902 | 55 | 213 | 1.0 | 5.0 | 0.00 | 0.00 | 0.00 | 55 | 1009.8 |
| 20260503022401 | 56 | 160 | 1.0 | 3.0 | 0.00 | 0.00 | 0.00 | 56 | 1009.9 |
| 20260503021858 | 57 | 288 | 1.0 | 2.0 | 0.00 | 0.00 | 0.00 | 54 | 1009.9 |
| 20260503021354 | 57 | 224 | 1.0 | 5.0 | 0.00 | 0.00 | 0.00 | 52 | 1010.1 |
| 20260503020852 | 57 | 175 | 1.0 | 5.0 | 0.00 | 0.00 | 0.00 | 53 | 1009.8 |
| 20260503020350 | 56 | 247 | 1.0 | 3.0 | 0.00 | 0.00 | 0.00 | 55 | 1009.6 |